• în Republica Moldova
  • Lista ţărilor
  • Pe 7 zile
  • Temperatura apei
  • Hartă satelitară
  • Meteo pe hartă
  • Widget-uri
  • user-avatar
    Intrare

    Meteo pe oră la Lezhe

    Astăzi, 19 Ianuarie, Vineri

    Timp Temperatura Precipitaţii Vânt Presiune Umiditate
    00:00 +2°C° 0 mm 3 m/s 738 mmHg 58%
    01:00 +2°C° 0 mm 3 m/s 737 mmHg 61%
    02:00 +2°C° 0 mm 3 m/s 737 mmHg 64%
    03:00 +2°C° 0 mm 3 m/s 737 mmHg 66%
    04:00 +2°C° 0 mm 3 m/s 737 mmHg 68%
    05:00 +2°C° 0 mm 3 m/s 737 mmHg 69%
    06:00 +2°C° 0 mm 3 m/s 737 mmHg 70%
    07:00 +1°C° 0 mm 4 m/s 737 mmHg 71%
    08:00 +4°C° 0 mm 4 m/s 737 mmHg 70%
    09:00 +5°C° 0 mm 4 m/s 737 mmHg 68%
    10:00 +7°C° 0 mm 4 m/s 737 mmHg 67%
    11:00 +8°C° 0 mm 3 m/s 736 mmHg 70%
    12:00 +8°C° 0 mm 3 m/s 736 mmHg 73%
    13:00 +7°C° 0 mm 4 m/s 735 mmHg 82%
    14:00 +6°C° 0,1 mm 4 m/s 735 mmHg 83%
    15:00 +6°C° 0,1 mm 4 m/s 735 mmHg 85%
    16:00 +6°C° 0,1 mm 4 m/s 735 mmHg 87%
    17:00 +6°C° 0,1 mm 4 m/s 735 mmHg 86%
    18:00 +6°C° 0,1 mm 4 m/s 735 mmHg 86%
    19:00 +5°C° 0,1 mm 4 m/s 735 mmHg 86%
    20:00 +5°C° 0,3 mm 4 m/s 735 mmHg 86%
    21:00 +6°C° 0,3 mm 4 m/s 735 mmHg 85%
    22:00 +6°C° 0,3 mm 4 m/s 735 mmHg 85%
    23:00 +6°C° 0,5 mm 4 m/s 734 mmHg 85%

    Mâine, 20 Ianuarie, Sâmbătă

    Timp Temperatura Precipitaţii Vânt Presiune Umiditate
    00:00 +6°C° 0,5 mm 4 m/s 734 mmHg 86%
    01:00 +6°C° 0,5 mm 5 m/s 734 mmHg 86%
    02:00 +6°C° 0,7 mm 5 m/s 734 mmHg 87%
    03:00 +6°C° 0,7 mm 5 m/s 734 mmHg 88%
    04:00 +6°C° 0,7 mm 5 m/s 734 mmHg 89%
    05:00 +7°C° 1,1 mm 5 m/s 733 mmHg 90%
    06:00 +7°C° 1,1 mm 5 m/s 733 mmHg 91%
    07:00 +7°C° 1,1 mm 5 m/s 733 mmHg 92%
    08:00 +7°C° 1,3 mm 5 m/s 733 mmHg 92%
    09:00 +8°C° 1,3 mm 5 m/s 733 mmHg 92%
    10:00 +8°C° 1,3 mm 5 m/s 733 mmHg 92%
    11:00 +8°C° 1,6 mm 5 m/s 733 mmHg 92%
    12:00 +8°C° 1,6 mm 5 m/s 732 mmHg 92%
    13:00 +8°C° 1,6 mm 5 m/s 732 mmHg 92%
    14:00 +8°C° 1,1 mm 4 m/s 732 mmHg 92%
    15:00 +8°C° 1,1 mm 4 m/s 732 mmHg 92%
    16:00 +9°C° 1,1 mm 3 m/s 733 mmHg 92%
    17:00 +8°C° 0,3 mm 3 m/s 733 mmHg 93%
    18:00 +7°C° 0,3 mm 2 m/s 734 mmHg 93%
    19:00 +7°C° 0,3 mm 2 m/s 734 mmHg 94%
    20:00 +6°C° 0 mm 2 m/s 734 mmHg 94%
    21:00 +7°C° 0 mm 1 m/s 734 mmHg 94%
    22:00 +7°C° 0 mm 1 m/s 734 mmHg 94%
    23:00 +6°C° 0 mm 2 m/s 734 mmHg 94%

    Poimâine, 21 Ianuarie, Duminică

    Timp Temperatura Precipitaţii Vânt Presiune Umiditate
    00:00 +6°C° 0 mm 2 m/s 734 mmHg 94%
    01:00 +5°C° 0 mm 2 m/s 734 mmHg 94%
    02:00 +5°C° 0 mm 2 m/s 733 mmHg 92%
    03:00 +5°C° 0 mm 2 m/s 733 mmHg 90%
    04:00 +5°C° 0 mm 2 m/s 732 mmHg 88%
    05:00 +6°C° 0,1 mm 2 m/s 732 mmHg 87%
    06:00 +6°C° 0,1 mm 2 m/s 732 mmHg 85%
    07:00 +5°C° 0,1 mm 3 m/s 731 mmHg 84%
    08:00 +5°C° 0,9 mm 3 m/s 731 mmHg 85%
    09:00 +7°C° 0,9 mm 2 m/s 731 mmHg 86%
    10:00 +7°C° 0,9 mm 2 m/s 730 mmHg 87%
    11:00 +7°C° 1,6 mm 2 m/s 730 mmHg 89%
    12:00 +7°C° 1,6 mm 2 m/s 729 mmHg 90%
    13:00 +7°C° 1,6 mm 2 m/s 729 mmHg 92%
    14:00 +7°C° 0,8 mm 2 m/s 729 mmHg 91%
    15:00 +7°C° 0,8 mm 2 m/s 729 mmHg 91%
    16:00 +8°C° 0,8 mm 1 m/s 729 mmHg 91%
    17:00 +6°C° 0,2 mm 2 m/s 729 mmHg 90%
    18:00 +6°C° 0,2 mm 2 m/s 730 mmHg 90%
    19:00 +6°C° 0,2 mm 2 m/s 730 mmHg 90%
    20:00 +5°C° 0 mm 2 m/s 731 mmHg 89%
    21:00 +4°C° 0 mm 3 m/s 731 mmHg 87%
    22:00 +3°C° 0 mm 3 m/s 732 mmHg 86%
    23:00 +3°C° 0 mm 3 m/s 732 mmHg 85%

    22 Ianuarie, Luni

    Timp Temperatura Precipitaţii Vânt Presiune Umiditate
    00:00 +2°C° 0 mm 3 m/s 732 mmHg 84%
    01:00 +2°C° 0 mm 3 m/s 733 mmHg 83%
    02:00 +1°C° 0 mm 3 m/s 733 mmHg 82%
    03:00 +1°C° 0 mm 3 m/s 733 mmHg 81%
    04:00 -1°C° 0 mm 4 m/s 734 mmHg 80%
    05:00 -1°C° 0 mm 4 m/s 734 mmHg 78%
    06:00 -2°C° 0 mm 4 m/s 735 mmHg 77%
    07:00 -2°C° 0 mm 4 m/s 735 mmHg 75%
    08:00 -1°C° 0 mm 4 m/s 736 mmHg 70%
    09:00 0°C° 0 mm 4 m/s 736 mmHg 64%
    10:00 +1°C° 0 mm 4 m/s 737 mmHg 59%
    11:00 +3°C° 0 mm 4 m/s 737 mmHg 57%
    12:00 +3°C° 0 mm 4 m/s 737 mmHg 56%
    13:00 +4°C° 0 mm 4 m/s 737 mmHg 54%
    14:00 +3°C° 0 mm 3 m/s 737 mmHg 57%
    15:00 +3°C° 0 mm 3 m/s 737 mmHg 60%
    16:00 +2°C° 0 mm 3 m/s 738 mmHg 64%
    17:00 +2°C° 0 mm 3 m/s 738 mmHg 65%
    18:00 +1°C° 0 mm 3 m/s 739 mmHg 66%
    19:00 0°C° 0 mm 3 m/s 739 mmHg 68%
    20:00 0°C° 0 mm 3 m/s 739 mmHg 67%
    21:00 0°C° 0 mm 3 m/s 739 mmHg 66%
    22:00 +1°C° 0 mm 2 m/s 739 mmHg 64%
    23:00 +1°C° 0 mm 2 m/s 739 mmHg 63%

    23 Ianuarie, Marţi

    Timp Temperatura Precipitaţii Vânt Presiune Umiditate
    00:00 +1°C° 0 mm 2 m/s 739 mmHg 62%
    01:00 +2°C° 0 mm 2 m/s 739 mmHg 61%
    02:00 +2°C° 0 mm 2 m/s 739 mmHg 60%
    03:00 +2°C° 0 mm 2 m/s 739 mmHg 59%
    04:00 +2°C° 0 mm 2 m/s 739 mmHg 59%
    05:00 +3°C° 0 mm 1 m/s 739 mmHg 59%
    06:00 +4°C° 0 mm 1 m/s 739 mmHg 58%
    07:00 +4°C° 0 mm 1 m/s 739 mmHg 58%
    08:00 +5°C° 0 mm 1 m/s 739 mmHg 59%
    09:00 +7°C° 0 mm 1 m/s 740 mmHg 60%
    10:00 +8°C° 0 mm 1 m/s 740 mmHg 61%
    11:00 +9°C° 0 mm 1 m/s 740 mmHg 59%
    12:00 +9°C° 0 mm 1 m/s 740 mmHg 57%
    13:00 +10°C° 0 mm 1 m/s 740 mmHg 55%
    14:00 +9°C° 0,1 mm 1 m/s 740 mmHg 61%
    15:00 +9°C° 0,1 mm 1 m/s 741 mmHg 67%
    16:00 +8°C° 0,1 mm 1 m/s 741 mmHg 72%
    17:00 +7°C° 0 mm 1 m/s 742 mmHg 75%
    18:00 +6°C° 0 mm 2 m/s 742 mmHg 77%
    19:00 +5°C° 0 mm 2 m/s 743 mmHg 79%
    20:00 +5°C° 0 mm 2 m/s 743 mmHg 80%
    21:00 +5°C° 0 mm 2 m/s 744 mmHg 81%
    22:00 +4°C° 0 mm 2 m/s 744 mmHg 82%
    23:00 +3°C° 0 mm 3 m/s 745 mmHg 82%

    24 Ianuarie, Miercuri

    Timp Temperatura Precipitaţii Vânt Presiune Umiditate
    00:00 +3°C° 0 mm 3 m/s 745 mmHg 82%
    01:00 +2°C° 0 mm 3 m/s 745 mmHg 81%
    02:00 +2°C° 0 mm 3 m/s 746 mmHg 81%
    03:00 +2°C° 0 mm 3 m/s 746 mmHg 80%
    04:00 +2°C° 0 mm 3 m/s 746 mmHg 80%
    05:00 +2°C° 0 mm 3 m/s 747 mmHg 79%
    06:00 +1°C° 0 mm 3 m/s 747 mmHg 79%
    07:00 +1°C° 0 mm 3 m/s 747 mmHg 78%
    08:00 +3°C° 0 mm 3 m/s 748 mmHg 74%
    09:00 +4°C° 0 mm 3 m/s 748 mmHg 71%
    10:00 +7°C° 0 mm 3 m/s 748 mmHg 67%
    11:00 +7°C° 0 mm 3 m/s 748 mmHg 64%
    12:00 +8°C° 0 mm 2 m/s 748 mmHg 62%
    13:00 +9°C° 0 mm 2 m/s 748 mmHg 59%
    14:00 +8°C° 0 mm 2 m/s 748 mmHg 62%
    15:00 +8°C° 0 mm 2 m/s 748 mmHg 65%
    16:00 +7°C° 0 mm 2 m/s 748 mmHg 68%
    17:00 +6°C° 0 mm 2 m/s 748 mmHg 70%
    18:00 +5°C° 0 mm 2 m/s 748 mmHg 71%
    19:00 +4°C° 0 mm 2 m/s 749 mmHg 72%
    20:00 +4°C° 0 mm 2 m/s 749 mmHg 71%
    21:00 +4°C° 0 mm 2 m/s 749 mmHg 69%
    22:00 +4°C° 0 mm 2 m/s 749 mmHg 68%
    23:00 +4°C° 0 mm 2 m/s 749 mmHg 66%
    Arată mai mult